Orbital Elements at Epoch 2459000.5 (2020-May-31.0) TDB
Reference: JPL 27 (heliocentric ecliptic J2000)
Element | Value | Uncertainty (1-sigma) | Units |
e | .1514539960291779 | 4.5463e-08 | |
a | 3.14321293521403 | 1.9671e-08 | au |
q | 2.667160775805264 | 1.3888e-07 | au |
i | 6.284659939197855 | 3.5431e-06 | deg |
node | 107.336562174154 | 4.2663e-05 | deg |
peri | 247.6327873458696 | 4.4365e-05 | deg |
M | 60.38960553373563 | 1.1918e-05 | deg |
tp | 2458659.056520494376 (2019-Jun-24.55652049) | 6.7615e-05 | TDB |
period | 2035.443873753369 5.57 | 1.9107e-05 5.231e-08 | d yr |
n | .1768655990185365 | 1.6603e-09 | deg/d |
Q | 3.619265094622797 | 2.265e-08 | au |
|
| | Orbit Determination Parameters
Additional Information
|